Theta_e
345 344 339 341 341 341 345 346 346 347 346 345 344 346 345 344 343 346 346 345 345 344 344 349 349 349 348 347 346 346 346 346 346 346 346 346 345 343 343 343 344 344 344
347 348 349 348 348 345 346 345 345 345 346 350 349 346 346 347 345 344 346 346 345 346 346 346 346 350 349 348 347 346 346 346 346 346 344 344 342 341 339 340 342 344 334
347 347 349 348 348 348 346 346 347 348 348 348 351 349 349 349 349 346 346 347 346 346 347 347 346 347 347 351 349 347 346 345 345 345 344 342 339 339 338 340 344 333 342
345 349 348 346 347 349 350 349 349 350 351 351 350 351 350 351 350 350 348 348 349 348 347 348 347 346 348 349 350 349 345 344 341 343 342 341 341 339 337 340 342 342 340
345 350 347 350 350 349 350 350 349 349 351 349 350 352 351 351 351 351 351 351 351 350 349 350 350 346 347 351 351 349 347 344 343 341 343 341 342 342 339 338 341 341 339
339 345 348 350 350 351 349 350 350 349 349 350 351 351 351 351 350 350 351 348 350 351 351 350 350 349 347 348 350 350 348 346 341 340 342 340 341 341 341 339 338 341 339
348 347 349 350 351 351 350 351 351 351 352 351 352 350 350 350 350 351 351 350 352 351 351 350 350 349 347 347 349 349 349 349 344 338 338 339 340 339 340 339 338 339 339
349 351 350 352 352 351 351 351 351 352 351 352 351 350 347 347 350 346 342 345 350 350 345 351 349 348 349 349 348 349 348 347 349 341 335 336 335 340 339 338 338 339 340
350 350 350 351 352 352 352 353 352 353 353 353 353 351 348 347 346 349 349 346 346 344 343 347 349 351 349 350 351 349 348 348 347 348 341 337 336 340 340 338 339 338 338
351 350 352 353 353 354 354 354 351 352 353 352 350 352 351 351 348 345 348 349 349 346 349 346 347 349 349 350 350 350 349 347 347 346 345 344 339 339 340 336 335 337 338
351 351 353 354 353 352 354 354 351 354 353 351 350 350 350 351 351 346 344 345 349 348 350 342 348 348 350 349 348 347 349 348 346 346 346 346 347 342 342 339 336 333 337
352 353 351 354 352 353 355 355 354 353 351 350 345 345 349 348 345 345 343 342 344 345 347 347 347 348 350 350 349 347 349 349 347 345 345 344 344 347 345 343 341 338 333
352 353 354 355 354 354 355 356 352 351 348 345 341 347 351 350 350 349 347 339 332 332 334 344 347 349 349 350 350 348 349 349 348 348 346 346 346 344 346 345 343 342 340
353 353 352 352 353 353 353 352 353 349 340 336 344 345 347 349 350 343 347 334 329 329 333 339 343 347 345 345 350 350 348 344 349 348 346 345 345 346 345 345 345 341 341
355 354 354 354 353 351 352 352 352 347 337 338 341 348 349 349 343 337 336 332 331 328 328 337 345 347 346 347 345 351 348 349 348 343 341 343 343 343 344 344 345 345 343
356 356 354 352 352 350 349 350 349 346 339 335 342 345 344 346 340 338 334 336 335 332 329 338 345 347 349 349 349 349 344 346 345 340 341 342 342 341 340 341 344 345 345
355 356 350 346 347 342 335 345 344 343 339 334 338 341 340 342 340 338 337 336 337 336 332 338 343 347 348 348 346 344 344 345 345 345 344 343 340 339 339 340 340 340 341
357 355 346 338 337 344 338 341 339 344 343 337 338 339 337 338 339 338 335 335 334 334 336 334 337 335 337 337 337 337 338 341 340 338 341 345 342 341 342 339 338 337 337
353 354 352 350 346 343 335 338 339 341 338 343 339 338 339 336 339 338 336 334 333 332 331 331 332 332 330 329 329 333 338 338 336 337 338 338 339 339 339 338 340 337 336
350 351 352 346 339 338 341 347 348 345 341 343 344 340 339 337 338 340 337 335 333 333 332 331 330 330 329 330 332 333 333 333 333 333 335 335 336 337 336 339 341 339 337
348 347 347 339 336 336 338 341 340 341 339 342 344 344 340 340 340 341 339 337 335 332 330 327 327 329 330 331 331 330 331 331 334 334 333 335 336 339 341 343 342 338 338
342 343 344 344 344 340 339 342 346 345 345 345 345 345 344 341 342 342 340 339 338 333 332 328 326 325 327 327 325 322 324 327 327 332 331 332 330 332 333 334 338 339 337
336 337 337 338 338 339 339 341 343 345 344 341 341 342 342 343 342 342 340 337 334 332 329 327 321 323 323 323 321 319 318 322 324 320 322 320 319 323 331 331 328 329 330
330 331 330 331 332 332 336 338 340 339 337 336 335 336 338 339 340 339 338 327 324 325 320 322 324 322 326 325 321 321 321 320 317 314 311 318 325 329 329 327 328 329 330
330 330 330 329 329 329 328 330 330 330 329 327 327 326 330 332 333 327 325 325 327 330 331 328 324 325 322 324 325 322 321 320 317 318 317 324 330 328 329 331 331 330 332
328 327 326 325 326 328 328 327 327 326 324 323 324 325 327 327 327 328 330 329 328 325 325 326 326 324 325 326 326 326 324 319 318 319 326 326 329 328 324 328 327 329 329
Wind_Speed
9 7 8 9 9 7 8 8 8 9 9 11 11 11 11 9 10 9 16 16 11 12 17 16 17 17 16 14 14 14 14 15 17 17 17 16 18 18 18 19 19 18 18
9 9 10 11 12 9 10 10 10 12 13 13 12 12 13 11 11 12 12 20 22 19 14 16 16 20 19 18 17 16 15 15 15 16 18 18 16 18 18 19 19 18 17
10 10 14 15 13 12 15 15 15 16 18 17 16 14 12 15 14 15 16 17 23 24 22 21 21 16 21 20 18 18 18 18 17 17 17 18 19 17 19 20 19 17 18
14 11 9 9 10 12 12 12 15 16 14 15 18 16 15 16 16 14 14 17 20 24 24 22 23 22 20 21 22 21 20 18 17 18 17 17 19 20 19 20 21 21 19
16 15 14 11 11 13 12 12 13 17 17 14 14 15 13 14 12 12 13 14 17 19 23 19 23 25 23 20 24 23 22 21 20 19 19 17 19 21 21 21 21 21 21
17 17 15 13 13 14 15 15 12 14 15 15 14 14 16 16 16 17 17 17 17 17 17 19 21 25 25 24 24 24 25 20 20 20 21 19 19 21 23 23 23 22 21
15 15 17 15 15 15 16 15 13 14 12 9 10 12 14 13 13 10 11 12 15 14 14 14 15 20 27 26 22 21 24 23 21 21 21 22 21 22 24 25 24 23 22
19 16 19 15 14 14 12 9 11 11 7 7 4 3 3 3 7 7 9 13 17 18 17 13 13 18 20 22 27 24 23 24 23 23 23 23 23 24 23 24 24 22 21
19 18 17 18 15 14 14 12 14 13 8 4 6 4 1 2 4 4 5 9 12 17 18 17 14 14 18 17 18 22 23 24 24 24 26 26 25 24 25 21 22 22 21
17 18 17 17 16 14 12 12 11 11 10 7 6 9 11 8 2 4 5 10 12 13 14 18 13 13 15 13 16 19 19 21 23 24 24 25 28 26 23 29 25 21 22
18 19 18 15 14 14 13 11 10 11 11 9 7 5 7 7 10 4 4 6 10 12 17 15 16 18 16 13 13 14 17 19 21 23 24 23 24 25 25 26 28 29 22
15 18 20 19 19 18 17 15 14 14 13 12 11 11 11 6 4 5 3 6 6 8 16 20 19 20 20 18 15 14 15 16 19 18 21 22 22 25 25 26 26 28 30
16 19 21 20 21 20 19 16 14 14 14 15 13 12 12 13 10 9 7 4 2 3 4 17 19 20 20 20 19 13 14 15 15 16 19 21 23 22 24 26 28 28 28
16 16 20 23 21 21 18 16 16 16 15 13 11 14 12 11 11 10 6 5 2 2 3 5 12 18 18 19 20 14 14 13 14 15 15 18 19 22 23 22 28 31 31
18 17 15 18 18 20 21 19 19 17 14 12 12 11 10 11 9 9 10 9 6 1 3 4 3 10 14 17 18 16 15 13 13 13 12 12 14 18 20 22 23 26 31
17 13 12 13 13 14 21 20 19 18 16 16 13 12 14 14 10 8 10 8 9 7 2 2 3 5 9 14 15 15 13 12 12 12 12 13 13 13 14 15 17 21 21
17 16 12 8 17 14 22 18 21 20 18 17 16 16 13 13 13 10 9 10 10 9 5 4 3 3 6 7 9 11 11 12 14 14 14 14 15 12 14 14 15 16 17
18 20 19 15 22 28 20 21 28 26 21 19 16 15 15 14 13 11 11 12 11 9 7 7 6 4 6 7 10 11 12 11 13 14 15 16 16 15 16 17 17 16 16
16 24 25 24 20 23 19 19 23 19 17 22 19 20 17 15 16 13 13 12 11 10 9 9 9 7 6 8 10 11 14 14 13 14 15 16 18 20 21 20 22 18 18
5 8 13 10 14 5 5 9 16 18 20 24 20 18 17 16 18 16 15 14 12 11 9 8 7 7 6 5 5 7 9 7 8 8 11 16 18 21 22 21 23 20 18
7 7 9 10 7 10 7 8 15 20 22 22 22 22 21 20 20 19 20 18 15 13 11 9 6 4 3 3 2 1 2 4 5 3 4 3 5 7 11 13 17 18 18
8 6 7 8 11 11 13 18 13 15 17 19 20 19 21 22 23 23 24 19 15 17 14 10 8 6 5 3 1 3 5 4 4 6 9 12 10 8 5 7 13 17 15
15 13 11 8 8 11 14 13 12 12 11 12 13 17 20 23 25 25 24 19 14 10 6 7 6 5 4 3 4 4 3 4 7 14 14 13 16 17 14 13 11 12 16
22 22 23 21 21 19 15 11 7 5 6 8 11 14 15 18 19 20 23 20 15 10 9 7 8 8 4 8 9 8 6 5 9 9 10 6 8 13 12 16 13 12 15
26 26 23 25 24 23 21 19 16 16 16 18 18 18 12 10 6 7 17 21 25 18 8 9 7 4 6 7 10 10 9 6 5 6 4 5 6 11 8 4 6 7 9
20 20 22 23 25 25 23 22 21 21 21 18 17 19 22 21 19 20 15 6 1 4 6 9 7 5 9 11 4 4 8 8 4 2 1 5 5 11 6 2 9 6 4
Wind_Direction
185 199 208 217 219 217 228 236 255 265 278 285 280 274 279 277 272 247 245 228 210 245 234 229 226 224 220 211 209 207 208 205 206 208 211 208 207 199 196 192 190 184 185
222 241 248 249 248 240 243 254 266 274 284 294 289 263 277 282 257 259 254 239 245 252 241 229 231 230 224 218 209 208 209 210 210 211 215 211 208 200 197 189 190 188 188
233 254 270 265 252 256 261 264 271 280 277 280 283 278 278 278 271 259 246 246 246 255 247 235 232 232 229 222 218 210 208 210 214 217 213 216 210 203 197 190 185 183 188
232 247 257 243 239 254 259 255 262 273 276 278 281 281 276 282 274 259 246 248 254 251 251 245 236 235 234 225 221 218 211 213 214 217 219 217 210 205 200 193 191 190 196
227 233 245 252 247 249 256 253 260 271 269 279 284 284 281 279 276 270 259 253 261 249 249 240 243 234 238 234 226 221 220 213 219 215 220 218 212 204 202 201 199 198 199
230 239 248 256 256 260 267 273 280 283 271 279 284 290 285 286 281 276 272 256 250 245 242 254 247 237 239 248 240 225 222 221 219 221 218 220 215 208 207 207 207 207 205
243 248 248 259 260 270 284 276 279 278 257 278 288 288 287 274 276 272 261 250 239 227 228 239 242 244 242 246 254 240 223 220 221 224 225 223 220 215 215 211 210 211 212
251 257 250 263 261 266 284 278 284 290 301 284 261 289 322 291 258 283 270 248 236 237 243 246 258 254 262 252 246 242 231 223 222 224 225 226 224 221 217 217 215 213 214
251 261 257 264 263 266 269 277 276 263 263 269 252 234 315 264 323 298 273 261 260 243 241 247 264 273 274 264 238 234 232 230 228 225 226 225 226 223 215 217 222 222 220
251 254 265 265 263 270 273 286 283 272 273 278 292 260 256 260 242 321 279 263 263 246 252 238 245 259 266 252 239 237 235 236 234 236 231 224 224 224 229 216 216 222 222
254 257 255 261 265 260 264 268 262 255 261 267 266 282 281 272 259 231 283 293 276 267 243 244 251 252 256 250 244 240 236 234 238 239 243 234 228 222 217 218 219 217 216
251 246 248 256 257 258 253 256 256 248 246 247 257 253 253 253 248 228 252 276 267 300 247 246 259 248 245 242 247 242 233 230 232 233 243 242 238 227 218 216 216 219 223
268 263 262 265 261 262 262 257 259 252 255 253 259 252 251 250 253 265 251 278 297 317 285 249 248 237 242 241 239 245 234 232 234 236 240 239 238 238 232 222 215 219 217
277 288 294 291 283 274 262 259 253 258 272 255 253 252 260 257 260 278 231 214 310 322 295 277 240 236 241 233 234 241 232 237 243 249 245 239 235 237 239 237 227 221 225
261 270 281 293 293 280 269 256 251 254 254 248 262 252 251 255 258 248 239 231 199 241 291 305 284 235 230 219 228 241 239 243 248 249 247 243 231 235 242 246 240 233 230
278 286 303 314 321 330 318 274 247 258 254 239 238 247 261 259 252 262 236 228 220 202 210 254 279 275 227 227 227 229 236 241 245 245 248 249 240 235 238 238 238 237 244
276 269 258 293 300 327 314 292 280 274 265 252 244 239 249 246 245 252 243 229 219 211 194 228 245 186 189 205 223 231 238 244 249 256 256 255 240 243 249 243 238 238 245
263 254 267 290 255 263 259 250 282 268 275 267 259 248 242 240 244 241 230 221 210 205 209 216 207 204 221 230 238 243 243 245 253 260 262 257 257 250 249 250 247 239 238
276 266 263 270 281 271 260 244 248 249 267 268 271 263 260 246 239 232 223 211 210 205 208 202 217 231 250 260 255 248 234 245 254 256 260 263 256 262 260 259 248 244 244
314 299 273 259 266 295 272 253 244 261 284 279 274 264 258 253 245 234 220 219 210 203 201 203 208 222 240 240 244 245 239 254 263 257 260 260 255 255 261 264 236 245 252
21 331 295 249 295 292 294 315 284 287 289 286 276 262 256 251 249 241 228 223 216 208 198 197 188 196 202 192 214 346 284 294 267 311 318 280 292 274 252 231 226 244 253
62 50 17 330 321 321 288 291 300 309 303 295 290 283 269 263 253 246 235 233 235 212 200 195 185 185 202 212 277 316 314 321 310 248 311 292 307 299 275 260 256 253 248
60 52 40 18 4 338 330 325 319 313 305 305 303 299 293 277 260 246 225 219 202 209 192 217 207 184 203 210 297 301 295 288 282 295 305 302 295 287 273 268 266 255 242
59 57 61 64 61 48 39 32 7 343 356 358 345 331 315 297 277 239 216 171 152 144 121 93 48 42 21 337 326 311 305 318 317 322 282 267 306 303 278 260 252 253 254
73 72 62 56 52 44 43 46 50 53 50 49 44 32 4 326 278 140 109 65 78 83 109 174 149 75 30 350 319 298 288 312 328 341 323 284 313 334 316 278 239 253 260
79 71 62 57 55 54 50 53 58 67 66 64 58 62 75 82 92 107 107 55 54 91 111 121 124 120 76 62 39 278 255 260 274 318 320 314 321 353 322 31 21 32 358